Location: Cheching
(60.0667°N, 164.2167°W)
Time: 08:09:39
(UTC+00:00)

XW-2D - Pass Details

Date: 22 January 2021
Orbit: 505 x 525 km, 97.5° (Epoch: 09 March)

Event Time Altitude Azimuth Distance (km) Brightness Sun altitude
Rises 16:55:44 0° 17° (NNE) 2,672 ? -18.4°
Reaches altitude 10° 16:57:53 10° 23° (NNE) 1,781 ? -18.1°
Maximum altitude 17:01:40 55° 101° (ESE) 644 ? -17.7°
Drops below altitude 10° 17:05:26 10° 180° (S) 1,772 ? -17.2°
Sets 17:07:34 0° 185° (S) 2,657 ? -16.9°
